CW0608 Weather Reports


Display with metric or nautical units.
time (UTC)temp
F
wind
direction
speed
MPH
gust
MPH
rain 1hr
in
rain 24hr
in
rain mn
in
humidity
%
barometer
mb
20260508004304 55 156 0.0 3.0 0.00 0.10 0.10 70 1010.6
20260508002306 56 157 1.0 6.0 0.00 0.10 0.10 67 1010.3
20260508001804 56 159 3.0 5.0 0.00 0.10 0.10 68 1010.2
20260508000804 56 152 2.0 3.0 0.00 0.10 0.10 68 1010.0
20260508000305 56 152 1.0 3.0 0.00 0.10 0.10 68 1010.0
20260507235803 57 152 1.0 3.0 0.00 0.10 0.10 67 1009.9
20260507235306 57 150 1.0 3.0 0.00 0.10 0.10 65 1009.8
20260507234804 58 153 2.0 5.0 0.00 0.10 0.10 63 1009.9
20260507233804 59 164 2.0 8.0 0.00 0.10 0.10 61 1009.8
20260507233304 59 156 4.0 8.0 0.00 0.10 0.10 60 1009.8
20260507232804 59 151 5.0 7.0 0.00 0.10 0.10 59 1009.6
20260507232306 59 161 3.0 10.0 0.00 0.10 0.10 58 1009.7
20260507231304 60 158 3.0 10.0 0.00 0.10 0.10 61 1009.5
20260507230804 60 158 3.0 9.0 0.00 0.10 0.10 60 1009.5
20260507230303 60 161 4.0 10.0 0.00 0.10 0.10 59 1009.6
20260507225804 60 149 3.0 10.0 0.00 0.10 0.10 61 1009.5
20260507225306 61 164 3.0 8.0 0.00 0.10 0.10 59 1009.5
20260507223804 61 152 5.0 10.0 0.00 0.10 0.10 60 1009.4
20260507221803 62 169 2.0 10.0 0.00 0.10 0.10 60 1009.2
20260507220803 63 162 3.0 9.0 0.00 0.10 0.10 58 1009.2
20260507220304 63 129 3.0 9.0 0.00 0.10 0.10 58 1009.3
20260507215307 64 151 4.0 10.0 0.00 0.10 0.10 57 1009.3
20260507213304 64 123 3.0 7.0 0.00 0.10 0.10 53 1009.3
20260507211804 65 160 2.0 8.0 0.00 0.10 0.10 54 1009.3
20260507211304 65 144 4.0 8.0 0.00 0.10 0.10 52 1009.4
20260507210304 65 153 5.0 6.0 0.00 0.10 0.10 52 1009.5
20260507205803 65 128 2.0 6.0 0.00 0.10 0.10 55 1009.5
20260507205306 65 53 2.0 6.0 0.00 0.10 0.10 53 1009.5
20260507204304 65 166 3.0 7.0 0.00 0.10 0.10 52 1009.3
20260507203804 65 213 2.0 7.0 0.00 0.10 0.10 53 1009.3
20260507203305 65 147 3.0 7.0 0.00 0.10 0.10 49 1009.2
20260507202804 65 182 2.0 7.0 0.00 0.10 0.10 51 1009.2
20260507201805 65 154 1.0 8.0 0.00 0.10 0.10 57 1009.2
20260507201303 66 109 2.0 10.0 0.00 0.10 0.10 55 1009.2
20260507200304 65 60 5.0 8.0 0.00 0.10 0.10 53 1009.3
20260507195804 65 138 3.0 7.0 0.00 0.10 0.10 54 1009.3
20260507194804 66 206 5.0 9.0 0.00 0.10 0.10 52 1009.5
20260507194303 65 126 4.0 12.0 0.00 0.10 0.10 53 1009.6
20260507193804 65 157 4.0 12.0 0.00 0.10 0.10 54 1009.6
20260507192306 64 154 5.0 8.0 0.00 0.10 0.10 54 1009.9
20260507191804 64 122 2.0 10.0 0.00 0.10 0.10 55 1010.0
20260507184804 66 203 3.0 8.0 0.00 0.11 0.10 45 1010.2
20260507183804 65 267 2.0 9.0 0.00 0.11 0.10 44 1010.2
20260507182306 64 90 2.0 10.0 0.00 0.11 0.10 46 1010.5
20260507181304 63 38 6.0 10.0 0.00 0.11 0.10 48 1010.7
20260507180304 63 83 5.0 12.0 0.00 0.11 0.10 51 1010.8
20260507175805 64 50 4.0 12.0 0.00 0.11 0.10 47 1010.9
20260507175306 64 66 3.0 8.0 0.00 0.11 0.10 50 1010.9
20260507172804 63 44 3.0 12.0 0.00 0.11 0.10 47 1011.1
20260507171804 64 343 3.0 12.0 0.00 0.11 0.10 50 1011.2
20260507171303 62 177 2.0 12.0 0.00 0.11 0.10 47 1011.3
20260507170803 62 64 6.0 12.0 0.00 0.11 0.10 51 1011.3
20260507170304 63 20 4.0 10.0 0.00 0.11 0.10 52 1011.4
20260507165306 62 241 6.0 10.0 0.00 0.11 0.10 53 1011.7
20260507164804 61 48 2.0 12.0 0.00 0.11 0.10 57 1011.7
20260507164303 60 91 2.0 12.0 0.00 0.11 0.10 54 1011.8
20260507163804 61 32 3.0 12.0 0.00 0.11 0.10 57 1011.8
20260507163304 61 160 1.0 10.0 0.00 0.11 0.10 58 1012.1
20260507162805 61 188 3.0 12.0 0.00 0.11 0.10 57 1012.2
20260507162306 60 246 5.0 12.0 0.00 0.11 0.10 57 1012.4
20260507160305 59 8 2.0 10.0 0.00 0.11 0.10 62 1012.6
20260507155804 58 212 2.0 8.0 0.00 0.11 0.10 59 1012.8
20260507154804 58 18 2.0 6.0 0.00 0.11 0.10 69 1012.7
20260507154304 57 21 0.0 3.0 0.00 0.11 0.10 66 1012.8
20260507152804 55 250 1.0 3.0 0.00 0.11 0.10 69 1012.9
20260507152306 55 43 2.0 5.0 0.00 0.11 0.10 70 1013.0
20260507151305 54 33 2.0 3.0 0.00 0.12 0.10 68 1013.0
20260507150803 54 217 1.0 3.0 0.00 0.13 0.10 71 1013.1
20260507150304 54 211 1.0 3.0 0.00 0.14 0.10 69 1013.1
20260507145805 54 211 1.0 3.0 0.00 0.14 0.10 67 1013.2
20260507144804 54 211 0.0 2.0 0.00 0.15 0.10 70 1013.3
20260507144303 54 211 0.0 5.0 0.00 0.15 0.10 71 1013.3
20260507143305 53 253 0.0 3.0 0.00 0.16 0.10 76 1013.2
20260507141803 53 300 2.0 3.0 0.00 0.16 0.10 69 1013.4
20260507140803 53 164 0.0 7.0 0.00 0.16 0.10 72 1013.6
20260507140304 53 290 0.0 7.0 0.00 0.16 0.10 74 1013.7
20260507135804 53 271 1.0 7.0 0.00 0.16 0.10 71 1013.8
20260507134803 53 271 1.0 7.0 0.00 0.17 0.10 71 1013.8
20260507134303 53 323 2.0 7.0 0.00 0.17 0.10 75 1013.8
20260507131303 52 254 0.0 3.0 0.00 0.18 0.10 75 1013.8
20260507130804 52 254 2.0 3.0 0.00 0.18 0.10 76 1013.9
20260507125306 52 337 0.0 5.0 0.00 0.18 0.10 80 1013.8
20260507123805 51 279 1.0 6.0 0.00 0.18 0.10 81 1013.6
20260507123303 51 302 2.0 7.0 0.00 0.18 0.10 83 1013.6
20260507122307 51 268 3.0 7.0 0.00 0.18 0.10 83 1013.5
20260507121803 51 343 2.0 6.0 0.00 0.18 0.10 84 1013.6
20260507121304 51 262 1.0 6.0 0.00 0.18 0.10 85 1013.6
20260507120804 51 303 2.0 7.0 0.00 0.18 0.10 85 1013.6
20260507120304 51 273 2.0 7.0 0.00 0.18 0.10 86 1013.5
20260507114803 51 288 1.0 3.0 0.00 0.18 0.10 88 1013.5
20260507114303 50 292 0.0 6.0 0.00 0.18 0.10 89 1013.5
20260507110805 50 246 0.0 3.0 0.00 0.18 0.10 93 1013.3
20260507105307 51 263 0.0 3.0 0.00 0.18 0.10 93 1013.1
20260507104805 51 290 1.0 3.0 0.00 0.18 0.10 94 1013.0
20260507102307 51 269 1.0 3.0 0.00 0.18 0.10 95 1012.6
20260507101305 52 284 0.0 2.0 0.00 0.18 0.10 95 1012.6
20260507100305 52 298 1.0 3.0 0.00 0.18 0.10 95 1012.5
20260507095805 52 137 0.0 2.0 0.00 0.18 0.10 95 1012.5
20260507094305 52 261 0.0 0.0 0.00 0.18 0.10 95 1012.7
20260507092805 52 261 0.0 0.0 0.00 0.18 0.10 95 1012.6
20260507085806 52 289 0.0 0.0 0.00 0.18 0.10 95 1012.0
20260507084305 52 289 0.0 0.0 0.01 0.18 0.10 95 1011.8
20260507082306 52 289 1.0 2.0 0.02 0.18 0.10 94 1011.6
20260507081305 52 289 0.0 3.0 0.02 0.18 0.10 94 1011.5
20260507080307 52 257 1.0 3.0 0.02 0.18 0.10 94 1011.6
20260507075805 52 289 0.0 0.0 0.02 0.18 0.10 94 1011.3
20260507075307 52 289 0.0 0.0 0.02 0.18 0.10 94 1011.1
20260507073805 52 271 0.0 3.0 0.01 0.17 0.09 94 1011.3
20260507070805 53 284 1.0 7.0 0.00 0.16 0.08 94 1011.5
20260507065805 54 281 1.0 3.0 0.00 0.16 0.08 94 1011.5
20260507065306 54 286 1.0 3.0 0.00 0.16 0.08 94 1011.4
20260507064305 54 292 0.0 2.0 0.00 0.16 0.08 94 1011.4
20260507063305 55 294 0.0 5.0 0.00 0.16 0.08 94 1011.6
20260507062306 55 290 0.0 3.0 0.00 0.16 0.08 94 1011.4
20260507061806 55 309 1.0 3.0 0.00 0.16 0.08 94 1011.5
20260507061305 55 268 1.0 3.0 0.01 0.16 0.08 94 1011.4
20260507060806 55 16 1.0 3.0 0.01 0.16 0.08 94 1011.2
20260507053304 55 242 1.0 3.0 0.08 0.16 0.08 93 1011.7
20260507051806 56 295 1.0 6.0 0.08 0.16 0.08 92 1011.7
20260507051305 56 265 2.0 6.0 0.07 0.15 0.07 91 1011.5
20260507050305 56 4 3.0 10.0 0.06 0.14 0.06 90 1011.7
20260507045806 57 281 3.0 10.0 0.05 0.13 0.05 89 1011.8
20260507044805 58 259 6.0 12.0 0.01 0.09 0.01 87 1011.8
20260507044305 58 275 1.0 7.0 0.00 0.08 0.00 87 1011.1
20260507042805 59 161 1.0 14.0 0.00 0.08 0.00 86 1011.2
20260507041305 60 281 4.0 14.0 0.00 0.08 0.00 85 1011.1
20260507040305 61 310 2.0 8.0 0.00 0.08 0.00 85 1010.7
20260507035804 61 284 1.0 3.0 0.00 0.08 0.08 85 1010.7
20260507035306 61 284 1.0 3.0 0.00 0.08 0.08 85 1010.7
20260507034804 61 284 2.0 8.0 0.00 0.08 0.08 84 1010.7
20260507034305 62 282 3.0 8.0 0.00 0.08 0.08 84 1010.9
20260507032806 62 302 2.0 9.0 0.00 0.08 0.08 86 1010.8
20260507025306 64 331 6.0 14.0 0.00 0.08 0.08 86 1010.4
20260507024805 64 272 1.0 7.0 0.00 0.08 0.08 87 1010.3
20260507023305 64 314 2.0 8.0 0.00 0.08 0.08 87 1010.0
20260507022306 65 349 3.0 8.0 0.00 0.08 0.08 88 1010.2
20260507021305 65 296 2.0 10.0 0.00 0.08 0.08 88 1010.2
20260507020805 65 269 2.0 10.0 0.00 0.08 0.08 88 1010.0
20260507020305 65 308 5.0 10.0 0.00 0.08 0.08 87 1010.0
20260507015804 65 314 2.0 10.0 0.00 0.08 0.08 87 1010.1
20260507013305 66 290 2.0 6.0 0.00 0.08 0.08 87 1010.4
20260507012306 66 256 3.0 8.0 0.00 0.08 0.08 87 1010.5
20260507011805 66 280 3.0 8.0 0.00 0.08 0.08 86 1010.6